This is the latest recevied weather packets stored in our database for station/object KXNA. If no packets are shown the sender has not sent any weather packets the latest 1 day(s).
| Time | Temp. | Humidity | Pressure | Rain* | Wind** | Luminosity | Snow |
|---|---|---|---|---|---|---|---|
| 1778037824 | - | - | 1016.6 hPa | - | 5.36 m/s, 40° | - | - |
| 1778037220 | 8.89° C | 87% | 1010.8 hPa | - | 4.92 m/s, 30° | - | - |
| 1778036619 | 8.89° C | 87% | 1010.8 hPa | - | 4.92 m/s, 30° | - | - |
| 1778036020 | 8.89° C | 87% | 1016.3 hPa | - | 5.81 m/s, 30° | - | - |
| 1778035420 | 8.89° C | 87% | 1016.3 hPa | - | 5.81 m/s, 30° | - | - |
| 1778034819 | - | - | 1015.9 hPa | - | 5.36 m/s, 40° | - | - |
| 1778034221 | - | - | 1015.9 hPa | - | 5.36 m/s, 40° | - | - |
| 1778033621 | - | - | 1015.9 hPa | - | 5.36 m/s, 40° | - | - |
| 1778033022 | - | - | 1015.9 hPa | - | 5.36 m/s, 40° | - | - |
| 1778032421 | 8.89° C | 87% | 1015.6 hPa | - | 4.02 m/s, 30° | - | - |
| 1778031821 | 8.89° C | 87% | 1015.6 hPa | - | 4.02 m/s, 30° | - | - |
| 1778031221 | 8.89° C | 87% | 1015.2 hPa | - | 4.02 m/s, 30° | - | - |
| 1778030619 | 8.89° C | 87% | 1015.2 hPa | - | 4.02 m/s, 30° | - | - |
| 1778030022 | 8.89° C | 87% | 1014.9 hPa | - | 4.02 m/s, 30° | - | - |
| 1778029419 | 8.89° C | 87% | 1009.5 hPa | - | 4.02 m/s, 30° | - | - |
| 1778028822 | 8.89° C | 93% | 1009.1 hPa | - | 7.15 m/s, 20° | - | - |
| 1778028220 | 8.89° C | 93% | 1009.1 hPa | - | 7.15 m/s, 20° | - | - |
| 1778027619 | 8.89° C | 93% | 1009.1 hPa | - | 7.15 m/s, 20° | - | - |
| 1778027019 | 8.89° C | 93% | 1009.1 hPa | - | 7.15 m/s, 20° | - | - |
| 1778026425 | 8.89° C | 93% | 1008.8 hPa | - | 5.81 m/s, 20° | - | - |
| 1778025823 | 8.89° C | 93% | 1009.1 hPa | - | 4.92 m/s, 30° | - | - |
| 1778025223 | 10° C | 87% | 1008.1 hPa | - | 7.6 m/s, 30° | - | - |
| 1778024619 | 10° C | 87% | 1008.1 hPa | - | 7.6 m/s, 30° | - | - |
| 1778024023 | 10° C | 87% | 1008.1 hPa | - | 7.6 m/s, 30° | - | - |
| 1778023423 | 10° C | 87% | 1008.1 hPa | - | 7.6 m/s, 30° | - | - |
* Rain since midnight (hover to see other rain measurements)
** Current wind speed in m/s (hover to see current wind gust speed)